THORAD DELTA 1 DEB, 8554

Orbit data source: Space-Track

THORAD DELTA 1 DEB, 8554 is space debris in SSO originally from a launch on Fri, 15 Nov 1974 UTC launched from the Air Force Western Test Range (AFWTR). Debris objects in space refer to the collection of defunct objects orbiting the Earth. Examples of debris include non-operational satellites, rocket bodies, and fragments generated from explosions, collisions, or faulty payload assembly.

Loading next visibility...
Identifier
8554, 1974-089CR
Orbit
SSO
Country
Flag of USUS
Related business
Manufacturer
Unknown
Mission
Spacecraft
Bus & Motor
Unknown
Mass
Unknown
Launch date (UTC)
1974-11-15 (52 years ago)
Launch vehicle
Unknown
Launch site
Air Force Western Test Range (AFWTR)
Object type
Payload
Rocket body
Debris
Shape & HBR
Unknown shape, 0.1 m
Radar Cross Section
Medium (>0.1 m² and <1 m²)

Expand to show TLE details & history
Last TLE update: 15 hours ago

TLE from 15 hours ago
0 THORAD DELTA 1 DEB
1 08554U 74089CR  26175.22329778  .00000061  00000-0  64853-3 0  9997
2 08554 101.9401 166.5354 0034249 303.1647  68.4522 12.56310329364716
Epoch: 2026-06-24T05:21Z
TLE epoch observation values (Epoch: 2026-06-24T05:21:32.928Z)
Latitude
11.68063°
Longitude
171.27134°
Altitude
1,430.281 km
Speed
7.151 km/s
True Right ascension
10h 56m 10s
True Declination
11° 37' 07"
Sunlit
Object was in daylight at epoch
Visualization orbit readout
Latitude
Unknown
Longitude
Unknown
Altitude
Unknown
Speed
Unknown
Apparent Right ascension
Unknown
Apparent Declination
Unknown
Sunlit
N/A
Visualization observer readout
Local Sidereal Time
07:35:34
Azimuth
Unknown
Elevation
Unknown
Doppler factor
Unknown
Orbital elements
Apogee altitude
1,462.523 km
Perigee altitude
1,408.999 km
Semi-major axis
7,813.898 km
Eccentricity
0.00342
Inclination
101.9401°
RAAN
166.5354°
Arg. of periapsis
303.1647°
True anomaly
68.81781°
Mean anomaly
68.4522°
Eccentric anomaly
68.63495°
Mean motion
3.14226 °/min
Orbital period
114.57 mins
BSTAR
0.00064853
Loading maneuver chart data...
Computing Atmospheric mass density...

Documentation

Showing up to 5 results
|